Terminal Aerodrome Forecast
Issued by NWS

Home | Current Version | Previous Version | Text Only | Print | Product List | Glossary On
Versions: 1 2 3 4 5 6 7 8 9 10 11 12 13 14 15 16 17 18 19 20 21 22 23 24 25 26
000
FTUS46 KOTX 290536
TAFMWH
TAF
KMWH 290536Z 2906/3006 05005KT P6SM SCT080 BKN100 OVC150
     FM291300 12011KT P6SM SCT080 BKN100 OVC150 WS020/19039KT
     FM291600 18010G17KT 5SM BLDU SCT100 OVC200
     FM291800 23025G39KT 1SM BLDU SCT010 BKN090 BKN150
     FM292300 23019G33KT 3SM BLDU SCT050 BKN120
     FM300200 24010KT P6SM FEW070 SCT120=

USA.gov is the U.S. government's official web portal to all federal, state and local government web resources and services.